Wetbulb
34.26 34.40 34.57 34.65 34.69 34.78 35.05 35.29 35.39 35.63 35.84 35.85 35.81 35.89 36.04 35.99 35.84 35.99 36.23 36.35 36.23 36.27 36.38 36.57 36.61 36.61 36.53 36.58 36.50 36.25 36.24 36.15 35.99 35.90 35.66 35.60 35.50 35.53 35.55 35.43 35.41 35.42 35.38 35.30 35.33 35.39 35.36 35.43 35.38 35.49 35.55 35.56 35.51 35.50 35.68 35.81 35.86 35.78 35.60 35.49 35.34 35.30 35.25 35.07 35.09 35.28 35.64 35.82 36.34
33.80 34.11 34.37 34.25 34.38 34.62 34.96 35.08 35.31 35.56 35.85 36.06 36.02 35.89 35.70 35.54 35.37 35.37 35.53 35.57 35.77 35.91 35.84 35.99 36.03 36.02 35.92 35.85 35.87 35.82 35.73 35.49 35.42 35.32 35.11 35.02 34.92 34.83 34.78 34.55 34.61 34.60 34.59 34.48 34.52 34.51 34.54 34.49 34.38 34.45 34.52 34.62 34.61 34.59 34.83 35.26 35.72 35.52 35.09 34.81 34.76 34.75 34.62 34.43 34.52 34.78 35.09 35.23 35.59
33.77 33.90 34.03 34.16 34.14 34.26 34.34 34.39 34.57 34.65 34.86 35.10 35.25 35.28 35.15 34.99 34.99 34.95 35.00 35.12 35.42 35.37 35.36 35.30 35.34 35.41 35.44 35.51 35.57 35.56 35.32 35.16 34.87 34.55 34.35 34.12 34.13 34.08 33.99 33.84 33.81 33.75 33.66 33.74 33.81 33.81 33.76 33.57 33.38 33.38 33.51 33.73 33.79 33.90 34.11 34.75 35.08 34.91 34.55 34.35 34.65 34.78 34.86 34.74 34.79 34.81 34.96 35.14 35.20
33.67 33.66 33.58 33.51 33.48 33.50 33.43 33.52 33.59 33.79 33.93 34.19 34.31 34.35 34.44 34.53 34.64 34.72 34.76 34.80 34.84 34.80 34.79 34.85 34.86 34.99 34.99 35.00 34.95 34.87 34.68 34.45 34.21 33.90 33.54 33.44 33.44 33.44 33.35 33.36 32.99 32.83 32.85 33.04 33.11 33.04 32.92 32.68 32.61 32.65 32.72 32.80 32.85 32.91 33.24 33.76 34.04 34.04 34.04 34.18 34.41 34.54 34.59 34.68 34.94 35.12 35.26 35.35 35.30
33.27 33.31 33.35 33.29 33.29 33.27 33.28 33.36 33.31 33.35 33.46 33.74 33.66 33.68 33.77 33.91 34.02 34.06 34.09 34.05 34.00 34.17 34.46 34.63 34.47 34.46 34.29 34.27 34.14 33.97 33.81 33.63 33.31 33.08 32.85 32.73 32.72 32.62 32.52 32.33 32.04 31.97 32.07 32.24 32.28 32.36 32.34 32.15 32.01 32.12 31.98 31.94 32.11 32.39 32.73 33.13 33.13 33.13 33.24 33.64 33.82 33.90 34.04 34.26 34.50 34.86 35.03 35.03 35.10
32.66 32.89 33.01 33.19 33.25 33.25 33.23 33.28 33.31 33.33 33.35 33.44 33.30 33.08 33.02 33.31 33.42 33.37 33.31 33.24 33.52 33.82 34.08 33.96 33.73 33.68 33.57 33.55 33.29 33.05 32.94 32.88 32.65 32.37 32.15 32.05 31.88 31.73 31.66 31.45 31.44 31.50 31.48 31.57 31.66 31.88 32.03 31.86 31.55 31.50 31.66 31.71 31.75 32.08 32.43 32.61 32.50 32.54 32.57 32.86 33.09 33.34 33.56 33.57 33.93 34.23 34.43 34.35 34.51
32.33 32.30 32.44 32.68 32.93 32.93 32.99 33.08 33.22 33.25 33.28 33.16 32.85 32.60 32.59 32.76 32.79 32.80 32.80 32.83 33.03 33.19 33.18 33.05 32.94 32.80 32.71 32.55 32.36 32.18 32.07 31.96 31.82 31.63 31.44 31.13 30.87 30.93 30.96 31.07 31.20 31.11 31.11 31.27 31.40 31.36 31.42 31.50 31.00 30.88 30.96 31.09 31.20 31.57 31.93 32.25 32.02 31.93 31.85 31.97 32.59 33.04 33.33 33.42 33.82 34.02 34.07 33.97 33.95
32.23 32.18 32.20 32.29 32.48 32.59 32.66 32.62 32.56 32.42 32.39 32.19 32.08 32.07 32.13 32.27 32.23 32.23 32.17 32.16 32.15 32.27 32.37 32.40 32.38 32.23 31.97 31.75 31.48 31.26 31.14 30.93 30.85 30.72 30.72 30.56 30.40 30.48 30.71 30.95 30.91 30.91 31.01 31.24 30.98 30.88 30.85 30.82 30.43 30.31 30.34 30.45 30.58 30.72 31.06 31.67 31.67 31.53 31.53 31.55 32.09 32.63 33.18 33.65 34.13 34.24 34.05 33.87 34.02
31.65 31.76 32.02 32.08 32.13 32.14 32.06 31.94 31.77 31.53 31.32 31.19 31.28 31.42 31.60 31.61 31.53 31.44 31.36 31.28 31.52 31.72 31.78 31.69 31.70 31.62 31.42 31.04 30.74 30.56 30.41 30.28 30.20 30.13 30.28 30.30 30.30 30.24 30.35 30.48 30.53 30.53 30.70 30.90 30.79 30.67 30.61 30.42 30.14 30.11 30.16 30.31 30.21 30.53 31.04 31.61 31.57 31.48 31.25 31.11 31.46 31.96 32.58 33.20 33.65 33.84 33.74 33.75 33.88
30.90 31.16 31.40 31.30 31.45 31.40 31.31 31.16 31.08 30.94 30.73 30.54 30.76 30.92 31.03 30.88 30.80 30.77 30.79 30.88 31.05 31.12 30.94 30.87 31.07 30.91 30.60 30.27 30.11 30.12 30.10 30.02 29.77 29.76 29.64 29.55 29.75 30.02 30.28 30.34 30.38 30.33 30.46 30.67 30.80 30.77 30.61 30.36 30.20 30.29 30.45 30.60 30.53 30.75 31.11 31.47 31.28 31.09 30.84 30.65 30.85 31.09 31.55 32.15 32.53 32.82 33.01 33.18 33.43
30.48 30.56 30.61 30.35 30.51 30.42 30.28 30.20 30.19 30.14 30.14 30.01 30.04 30.22 30.23 30.16 30.26 30.31 30.48 30.52 30.19 29.91 29.95 30.27 30.44 30.23 29.97 29.77 29.70 29.69 29.69 29.49 29.30 29.14 28.99 29.13 29.48 29.81 30.13 30.31 30.52 30.61 30.75 30.81 31.04 31.20 31.12 30.99 30.99 31.07 31.30 31.38 31.41 31.58 31.81 31.90 31.61 31.24 31.12 30.94 31.03 31.01 31.17 31.46 31.88 32.16 32.37 32.64 32.87
30.04 29.99 29.91 29.74 29.67 29.64 29.44 29.29 29.24 29.21 29.29 29.29 29.21 29.32 29.43 29.53 29.69 29.83 29.68 29.44 28.97 28.83 29.14 29.71 29.88 29.82 29.53 29.29 29.33 29.26 29.15 29.16 29.05 28.80 28.66 28.66 29.21 29.73 30.04 30.27 30.66 30.87 31.05 31.23 31.47 31.54 31.51 31.51 31.49 31.49 31.49 31.63 31.77 31.97 32.15 32.17 31.88 31.69 31.47 31.45 31.47 31.36 31.31 31.56 31.95 32.18 32.30 32.46 32.46
29.37 29.22 29.07 28.99 29.00 28.82 28.59 28.35 28.38 28.33 28.41 28.38 28.46 28.54 28.67 28.93 29.14 29.12 28.84 28.39 28.17 28.20 28.52 28.95 29.29 29.35 29.28 29.23 29.22 29.08 28.96 29.01 29.00 28.92 28.74 28.72 28.92 29.45 29.93 30.27 30.66 30.96 31.10 31.30 31.51 31.51 31.42 31.42 31.28 31.19 31.12 30.99 31.12 31.21 31.29 31.26 30.85 30.53 30.35 30.22 30.37 30.41 30.41 30.83 31.14 31.31 31.49 31.53 31.40
28.67 28.47 28.26 28.18 28.08 27.89 27.57 27.43 27.43 27.53 27.61 27.53 27.72 27.77 27.98 28.09 28.46 28.41 28.23 27.82 27.77 27.79 27.96 28.07 28.39 28.57 28.74 28.85 28.94 28.83 28.86 28.94 29.14 29.16 29.13 29.12 29.19 29.46 29.88 30.34 30.70 30.82 30.98 30.92 31.10 31.14 30.97 30.72 30.51 30.39 30.18 29.86 29.83 29.84 29.95 29.93 29.61 29.29 29.08 28.81 28.81 28.93 29.14 29.58 29.95 30.18 30.41 30.44 30.45
27.77 27.62 27.46 27.38 27.25 27.03 26.81 26.74 26.74 26.87 26.87 26.82 27.00 27.08 27.13 27.16 27.60 27.82 27.77 27.41 27.36 27.39 27.33 27.25 27.43 27.85 28.29 28.53 28.36 28.41 28.46 28.59 28.74 28.89 29.02 29.19 29.39 29.50 29.79 30.10 30.48 30.62 30.57 30.58 30.55 30.48 30.30 29.98 29.81 29.60 29.42 29.17 29.28 29.45 29.61 29.64 29.41 29.27 29.09 28.85 28.75 28.81 28.95 29.33 29.74 30.05 30.19 30.22 30.08
26.82 26.80 26.78 26.65 26.51 26.34 26.17 26.19 26.26 26.31 26.33 26.31 26.42 26.45 26.45 26.50 27.02 27.15 27.09 26.92 26.82 26.68 26.68 26.51 26.70 27.02 27.50 27.78 27.99 27.99 28.07 28.23 28.50 28.69 28.91 29.09 29.43 29.53 29.59 29.61 29.81 29.83 29.81 29.85 29.81 29.78 29.80 29.80 29.78 29.72 29.67 29.53 29.49 29.67 29.76 29.97 29.95 29.98 30.02 30.05 30.05 30.05 30.02 30.25 30.43 30.58 30.58 30.64 30.30
26.07 26.15 26.29 26.22 26.06 25.94 25.88 25.87 25.84 25.86 25.91 25.91 26.02 26.10 26.10 26.10 26.41 26.45 26.41 26.30 26.11 26.02 25.91 26.01 26.09 26.31 26.48 26.88 27.29 27.60 27.86 28.05 28.39 28.70 28.86 29.09 29.26 29.28 29.17 28.95 29.12 29.25 29.33 29.29 29.17 29.08 29.22 29.40 29.70 29.89 29.90 29.72 29.64 29.46 29.46 29.64 29.67 29.83 30.04 30.23 30.32 30.32 30.41 30.46 30.55 30.67 30.76 30.82 30.60
25.54 25.74 25.94 25.95 25.74 25.57 25.53 25.47 25.46 25.51 25.53 25.64 25.74 25.82 25.85 25.90 25.83 25.82 25.92 25.97 25.78 25.50 25.39 25.55 25.76 25.97 26.23 26.46 26.92 27.48 27.85 28.15 28.40 28.65 28.72 28.67 28.69 28.57 28.47 28.36 28.56 28.87 29.04 29.00 28.84 28.70 28.70 28.93 29.33 29.58 29.50 29.36 29.27 29.22 29.18 29.18 29.22 29.36 29.50 29.53 29.59 29.70 29.84 29.93 30.14 30.45 30.59 30.66 30.76
25.32 25.50 25.56 25.46 25.30 25.27 25.20 25.22 25.14 25.24 25.32 25.41 25.49 25.41 25.45 25.42 25.34 25.30 25.32 25.37 25.42 25.34 25.20 25.20 25.50 25.91 26.40 26.81 27.25 27.69 28.03 28.21 28.17 28.24 28.20 28.14 28.07 27.95 27.89 27.97 28.25 28.36 28.60 28.52 28.48 28.63 28.74 28.97 29.20 29.30 29.26 29.22 29.37 29.49 29.53 29.65 29.68 29.77 29.76 29.72 29.71 29.77 29.96 30.14 30.38 30.66 30.89 30.90 30.97
25.16 25.20 25.15 25.08 25.04 24.93 24.92 24.99 25.01 25.09 25.06 25.07 25.12 25.00 24.95 24.97 25.05 25.00 24.88 24.85 25.27 25.40 25.40 25.30 25.49 25.97 26.61 27.19 27.50 27.81 28.15 28.30 28.10 27.90 27.80 27.88 27.58 27.55 27.55 27.88 28.03 28.12 28.26 28.34 28.65 28.93 29.06 29.30 29.48 29.58 29.53 29.60 29.46 29.58 29.67 29.76 29.92 30.00 30.18 30.28 30.50 30.67 30.87 30.96 31.17 31.29 31.33 31.40 31.44
24.79 24.88 24.80 24.85 24.82 24.81 24.80 24.91 24.91 24.95 24.95 24.83 24.69 24.58 24.55 24.71 24.79 24.77 24.85 25.05 25.43 25.62 25.66 25.75 26.11 26.44 26.74 27.24 27.46 27.66 27.95 28.16 27.91 27.94 27.91 27.93 27.73 27.73 27.79 28.15 28.21 28.35 28.43 28.63 28.82 29.18 29.47 29.60 29.80 29.80 29.83 29.81 29.64 29.67 29.67 29.70 29.76 29.90 30.20 30.43 30.76 31.06 31.29 31.44 31.52 31.56 31.67 31.74 31.83
24.67 24.68 24.78 24.73 24.74 24.78 24.73 24.67 24.66 24.63 24.51 24.40 24.43 24.48 24.53 24.72 24.84 25.06 25.44 25.77 25.94 25.93 26.06 26.31 26.54 26.95 27.12 27.31 27.50 27.62 27.71 27.92 27.99 28.26 28.32 28.48 28.39 28.57 28.86 29.05 29.06 29.19 29.30 29.47 29.38 29.56 29.74 29.97 30.10 30.15 30.10 29.90 29.97 30.04 30.07 30.05 29.96 29.95 30.02 30.06 30.42 30.63 30.87 31.03 31.05 31.09 31.24 31.49 31.68
24.53 24.54 24.54 24.53 24.43 24.47 24.38 24.29 24.26 24.14 23.98 23.98 24.18 24.42 24.68 24.82 25.12 25.57 25.96 26.15 26.15 26.23 26.45 26.76 26.93 27.15 27.41 27.67 27.71 27.69 27.69 27.71 28.12 28.47 28.67 28.86 28.96 29.15 29.45 29.57 29.53 29.42 29.30 29.30 29.30 29.36 29.45 29.62 29.77 29.94 30.01 30.00 29.93 30.00 30.12 30.16 29.82 29.60 29.36 29.32 29.34 29.67 29.83 30.18 30.41 30.62 30.90 31.12 31.46
24.56 24.40 24.26 24.25 24.10 23.91 23.85 23.73 23.58 23.52 23.58 23.65 24.04 24.36 24.68 24.94 25.34 25.75 26.00 26.17 26.28 26.39 26.53 26.82 26.99 27.22 27.45 27.85 27.97 27.95 27.86 27.74 27.92 28.18 28.53 28.83 28.96 28.96 29.08 29.18 28.78 28.43 28.24 28.41 28.78 28.94 28.82 28.52 28.66 28.92 29.14 29.37 29.45 29.45 29.47 29.46 29.05 28.83 28.55 28.63 28.78 29.09 29.40 29.80 30.34 30.83 31.08 31.33 31.49
24.45 24.15 23.85 23.78 23.59 23.37 23.23 23.19 23.02 23.02 23.22 23.59 23.98 24.19 24.42 24.75 25.25 25.61 25.86 25.97 25.97 26.20 26.39 26.54 26.65 26.82 27.06 27.36 27.66 27.88 28.03 27.97 27.81 27.87 27.84 27.69 27.85 27.99 27.86 27.63 27.32 27.44 27.82 28.20 28.92 29.25 29.22 28.61 28.49 28.38 28.42 28.73 28.93 29.03 29.05 29.09 28.93 28.87 28.83 28.82 28.73 28.61 28.58 28.78 29.14 29.49 29.70 29.79 29.89
23.94 23.66 23.52 23.33 23.14 22.83 22.69 22.68 22.76 22.98 23.33 23.72 23.91 23.98 24.17 24.44 24.85 25.27 25.47 25.52 25.63 25.89 26.06 26.14 26.26 26.37 26.52 26.73 27.01 27.31 27.47 27.24 27.16 26.87 26.51 25.98 26.38 26.47 26.61 26.67 27.16 27.85 28.50 28.95 29.30 29.41 29.51 29.70 29.64 29.23 28.82 28.64 28.63 28.68 28.59 28.65 28.88 28.72 28.63 28.30 27.94 27.57 27.23 27.01 27.11 27.50 27.88 28.25 28.27
23.50 23.22 23.02 22.97 22.78 22.54 22.39 22.59 22.78 22.97 23.14 23.37 23.50 23.67 24.05 24.39 24.52 24.71 24.87 25.07 25.32 25.55 25.72 25.72 25.91 26.09 26.21 26.41 26.54 26.39 26.18 25.85 25.93 25.79 25.64 25.50 25.47 25.61 26.06 26.43 27.21 27.95 28.70 29.24 29.43 29.55 29.69 30.04 30.24 30.08 29.62 28.90 28.47 27.97 27.61 27.29 27.53 27.57 27.36 27.11 26.75 26.36 25.98 25.71 25.58 25.63 25.98 26.53 26.90
22.81 22.56 22.49 22.49 22.44 22.38 22.49 22.77 22.69 22.64 22.75 22.93 23.27 23.58 23.80 24.08 24.13 24.01 24.15 24.54 24.88 25.07 25.16 25.18 25.66 25.91 26.03 26.03 25.95 25.73 25.50 25.41 25.29 25.29 25.43 25.75 25.84 26.04 26.18 26.26 26.76 27.53 28.25 28.85 29.04 29.24 29.40 29.59 29.65 29.55 29.02 28.05 27.60 27.23 26.81 26.29 26.14 25.90 25.77 25.56 25.41 25.21 24.98 24.82 24.79 24.91 25.21 25.66 26.15
22.02 21.94 21.99 21.87 21.98 22.23 22.40 22.60 22.42 22.36 22.60 22.93 23.43 23.63 23.70 23.49 23.42 23.33 23.36 23.55 23.96 24.29 24.48 24.76 25.35 25.60 25.43 25.10 25.04 24.98 25.01 25.07 25.06 25.23 25.52 25.84 25.87 25.92 25.86 25.91 26.11 26.62 27.38 28.19 28.28 28.41 28.53 28.64 28.47 28.26 28.09 27.75 26.73 26.08 25.62 25.28 25.08 24.81 24.55 24.35 24.37 24.25 24.24 24.38 24.65 24.84 25.15 25.46 25.86
21.52 21.38 21.47 21.54 21.58 21.71 22.03 22.15 22.38 22.68 22.97 23.27 23.49 23.49 23.18 22.78 22.61 22.70 22.78 23.00 23.29 23.65 24.13 24.63 24.71 24.54 24.37 24.15 24.29 24.41 24.47 24.66 24.94 25.21 25.35 25.30 25.24 25.24 25.29 25.35 25.38 25.83 26.51 27.18 27.32 27.40 27.49 27.57 27.49 27.32 27.17 27.12 26.43 25.64 25.04 24.72 24.32 23.93 23.73 23.63 23.82 23.96 24.10 24.35 24.62 24.81 25.08 25.44 25.74
21.29 21.19 21.16 21.40 21.47 21.59 21.83 22.32 22.58 22.92 23.14 23.17 23.05 22.99 22.71 22.23 22.00 22.22 22.51 22.74 23.08 23.52 23.92 24.02 23.81 23.62 23.61 23.73 23.81 23.84 24.00 24.23 24.52 24.63 24.78 24.81 24.61 24.44 24.37 24.28 24.29 24.70 25.27 26.17 26.36 26.56 26.75 26.84 26.81 26.73 26.73 26.67 25.83 25.18 24.63 24.35 24.03 23.73 23.56 23.52 23.83 24.01 24.28 24.61 24.86 25.02 25.28 25.53 25.73
21.09 21.20 21.22 21.27 21.22 21.46 21.84 22.25 22.51 22.77 22.85 22.88 22.53 22.35 22.13 21.83 21.93 22.19 22.63 23.02 23.09 23.13 23.11 23.01 22.84 22.83 22.97 23.27 23.35 23.37 23.51 23.74 23.83 23.97 24.07 23.98 23.61 23.40 23.17 23.17 23.05 23.52 24.30 25.59 25.89 26.11 26.25 26.31 26.31 26.22 26.25 26.11 25.41 25.01 24.70 24.29 24.06 23.90 23.80 23.83 24.13 24.44 24.75 25.18 25.32 25.49 25.58 25.78 25.80
21.08 21.27 21.21 21.03 21.01 21.28 21.63 21.98 22.19 22.30 22.25 22.08 21.90 21.76 21.73 21.88 22.07 22.42 22.79 22.80 22.59 22.46 22.33 22.27 22.34 22.34 22.44 22.70 22.82 22.94 23.07 23.26 23.40 23.36 23.29 23.00 22.58 22.15 21.89 21.91 22.00 22.98 24.21 25.30 25.49 25.69 25.75 25.75 25.72 25.64 25.58 25.58 24.87 24.49 24.15 23.95 24.00 24.06 23.98 24.10 24.38 24.72 24.90 25.15 25.29 25.38 25.52 25.77 25.80
21.10 21.03 20.97 20.74 20.84 21.08 21.37 21.66 21.66 21.61 21.48 21.23 21.22 21.31 21.48 21.66 21.88 21.94 21.93 21.89 22.01 22.04 22.11 22.36 22.50 22.64 22.66 22.59 22.51 22.34 22.34 22.59 22.57 22.44 22.19 22.00 21.61 21.23 21.03 20.96 21.58 23.00 24.41 25.02 25.02 25.02 25.04 25.05 25.05 25.11 25.19 25.16 24.58 24.15 23.80 23.78 23.80 23.80 23.81 23.90 24.17 24.45 24.79 24.98 25.24 25.43 25.60 25.83 25.89
21.00 20.80 20.51 20.38 20.50 20.62 20.74 20.84 20.78 20.73 20.62 20.39 20.61 20.94 21.22 21.17 21.03 20.99 21.04 21.38 21.75 21.93 22.27 22.59 22.73 22.65 22.50 22.34 22.13 21.84 21.59 21.53 21.43 21.33 21.21 21.21 21.03 20.83 20.64 20.73 21.26 22.66 24.06 24.29 24.29 24.30 24.33 24.39 24.61 24.91 25.04 24.92 24.40 24.14 23.89 23.69 23.44 23.39 23.40 23.54 23.78 24.02 24.55 25.01 25.24 25.46 25.66 25.83 25.77
20.94 20.66 20.21 19.82 19.81 19.76 19.76 19.84 19.93 19.96 19.95 19.94 20.14 20.29 20.39 20.34 20.49 20.70 21.10 21.53 21.69 21.76 21.81 21.94 21.86 21.52 21.22 20.90 21.05 20.94 20.72 20.50 20.27 20.12 20.27 20.72 20.80 20.60 20.34 20.33 20.58 21.76 22.94 23.45 23.60 23.72 23.94 24.27 24.62 25.07 25.23 24.92 24.23 23.91 23.63 23.40 23.15 23.07 23.11 23.09 23.21 23.50 23.86 24.43 24.83 25.06 25.35 25.52 25.69
20.68 20.37 19.68 19.07 18.80 18.76 18.89 19.01 19.16 19.25 19.32 19.49 19.47 19.48 19.56 19.71 20.10 20.72 21.29 21.67 21.46 21.16 20.98 20.78 20.38 19.99 19.79 19.75 19.84 20.09 20.32 20.32 20.04 19.99 20.13 20.46 20.37 20.01 19.62 19.39 19.52 20.40 21.67 22.77 23.12 23.48 23.97 24.53 24.92 25.29 25.04 24.03 23.34 23.02 22.86 22.74 22.72 22.67 22.54 22.42 22.44 22.66 22.96 23.49 23.86 24.19 24.61 24.92 25.32
20.48 19.98 19.27 18.44 18.09 18.04 18.15 18.56 18.63 18.71 18.75 18.85 18.94 19.01 19.20 19.51 20.00 20.69 21.28 21.59 20.89 20.36 19.86 19.57 19.26 19.11 19.21 19.33 19.51 19.60 19.96 20.25 20.15 19.93 19.67 19.70 19.50 19.15 18.65 18.30 18.63 19.42 20.65 22.22 22.95 23.57 24.10 24.66 24.92 24.89 24.26 22.88 22.59 22.42 22.42 22.19 21.88 21.62 21.34 21.21 21.28 21.67 22.14 22.59 22.92 23.34 23.78 24.50 25.38
20.05 19.61 18.95 18.19 17.81 17.71 17.90 18.14 18.28 18.26 18.24 18.21 18.54 18.85 19.18 19.53 19.94 20.68 21.16 21.30 20.59 19.84 19.20 18.77 18.64 18.79 19.09 19.22 19.10 19.08 19.24 19.67 19.79 19.66 19.22 18.84 18.68 18.69 18.46 17.88 18.15 18.99 20.34 22.05 22.93 23.52 23.92 24.21 24.32 24.30 23.98 22.92 22.56 22.24 21.90 21.23 20.77 20.38 20.16 20.19 20.39 20.75 21.35 22.09 22.50 22.97 23.54 24.41 26.23
19.50 19.12 18.64 18.04 17.83 17.87 17.88 17.94 17.82 17.86 17.89 18.10 18.34 18.71 19.23 19.61 20.10 20.78 21.10 20.88 20.23 19.51 18.83 18.29 18.29 18.50 18.70 18.78 18.57 18.33 18.54 18.79 19.16 19.04 18.77 18.28 18.44 18.97 19.04 17.76 17.94 18.63 19.92 21.71 22.66 23.18 23.33 23.50 23.74 24.02 24.01 23.06 22.47 21.84 21.13 20.40 19.74 19.42 19.41 19.55 19.95 20.34 20.91 21.68 22.36 22.98 23.50 24.18 25.75
18.99 18.41 18.06 17.92 18.00 17.93 17.76 17.52 17.44 17.56 17.89 18.14 18.49 18.89 19.50 20.04 20.25 20.37 20.26 19.88 19.33 18.77 18.29 17.90 17.98 18.10 18.23 18.19 17.91 17.66 17.64 17.84 18.32 18.42 18.44 18.05 18.13 18.66 18.90 17.81 17.89 18.47 19.48 21.01 22.08 22.58 22.87 23.16 23.50 24.04 24.12 23.02 22.10 21.31 20.56 19.76 19.10 18.76 18.80 19.23 19.78 20.19 20.61 21.24 22.00 22.56 23.18 23.69 24.15
MSLP
1017.45 1017.41 1017.37 1017.33 1017.29 1017.25 1017.17 1017.05 1017.01 1017.01 1017.01 1016.97 1016.89 1016.85 1016.85 1016.85 1016.81 1016.77 1016.77 1016.77 1016.73 1016.69 1016.65 1016.65 1016.65 1016.73 1016.73 1016.73 1016.77 1016.77 1016.81 1016.81 1016.85 1016.85 1016.85 1016.85 1016.85 1016.85 1016.81 1016.77 1016.73 1016.73 1016.65 1016.61 1016.57 1016.53 1016.45 1016.41 1016.33 1016.25 1016.17 1016.09 1016.01 1015.93 1015.89 1015.85 1015.85 1015.77 1015.73 1015.69 1015.61 1015.57 1015.53 1015.45 1015.41 1015.29 1015.21 1015.13 1015.01
1017.49 1017.49 1017.49 1017.45 1017.45 1017.37 1017.29 1017.17 1017.13 1017.09 1017.05 1017.01 1017.01 1016.97 1017.01 1016.97 1016.97 1016.93 1016.89 1016.89 1016.85 1016.85 1016.81 1016.81 1016.81 1016.81 1016.85 1016.81 1016.85 1016.89 1016.89 1016.89 1016.89 1016.89 1016.89 1016.89 1016.89 1016.89 1016.89 1016.85 1016.81 1016.77 1016.73 1016.73 1016.69 1016.65 1016.57 1016.53 1016.45 1016.41 1016.29 1016.17 1016.13 1016.01 1015.93 1015.89 1015.85 1015.81 1015.73 1015.69 1015.65 1015.61 1015.57 1015.49 1015.45 1015.33 1015.25 1015.17 1015.09
1017.57 1017.57 1017.57 1017.53 1017.45 1017.41 1017.33 1017.29 1017.29 1017.25 1017.25 1017.21 1017.17 1017.17 1017.17 1017.17 1017.13 1017.05 1017.01 1017.01 1016.97 1016.97 1016.97 1016.89 1016.89 1016.89 1016.89 1016.89 1016.89 1016.89 1016.89 1016.89 1016.89 1016.89 1016.89 1016.89 1016.89 1016.89 1016.89 1016.89 1016.85 1016.85 1016.85 1016.81 1016.77 1016.77 1016.73 1016.73 1016.65 1016.57 1016.45 1016.29 1016.21 1016.13 1016.05 1015.97 1015.93 1015.85 1015.77 1015.73 1015.69 1015.61 1015.53 1015.45 1015.33 1015.29 1015.25 1015.17 1015.05
1017.65 1017.65 1017.65 1017.61 1017.57 1017.57 1017.53 1017.49 1017.45 1017.45 1017.45 1017.45 1017.37 1017.37 1017.37 1017.29 1017.29 1017.21 1017.17 1017.09 1017.05 1017.01 1017.01 1016.97 1016.89 1016.89 1016.89 1016.89 1016.89 1016.89 1016.89 1016.89 1016.89 1016.89 1016.89 1016.89 1016.89 1016.89 1016.89 1016.93 1016.93 1016.93 1016.93 1016.93 1016.93 1016.93 1016.89 1016.89 1016.77 1016.65 1016.53 1016.45 1016.37 1016.29 1016.21 1016.13 1016.09 1016.01 1015.89 1015.81 1015.73 1015.65 1015.57 1015.45 1015.33 1015.25 1015.17 1015.09 1015.01
1017.73 1017.73 1017.73 1017.73 1017.73 1017.69 1017.65 1017.61 1017.61 1017.61 1017.57 1017.53 1017.53 1017.45 1017.45 1017.37 1017.33 1017.29 1017.21 1017.17 1017.09 1017.05 1017.01 1016.97 1016.97 1016.93 1016.93 1016.93 1016.93 1016.89 1016.93 1016.93 1016.97 1016.97 1016.97 1016.97 1017.01 1017.01 1017.01 1017.01 1017.01 1017.01 1017.01 1017.01 1017.01 1017.01 1016.97 1016.93 1016.89 1016.73 1016.61 1016.53 1016.45 1016.33 1016.29 1016.21 1016.17 1016.05 1015.97 1015.85 1015.77 1015.73 1015.61 1015.49 1015.41 1015.29 1015.17 1015.05 1015.01
1017.85 1017.89 1017.89 1017.85 1017.85 1017.85 1017.81 1017.73 1017.73 1017.69 1017.65 1017.61 1017.57 1017.53 1017.49 1017.45 1017.37 1017.29 1017.25 1017.17 1017.17 1017.09 1017.05 1017.01 1017.01 1017.01 1017.01 1016.97 1016.97 1016.97 1017.01 1017.01 1017.01 1017.05 1017.05 1017.05 1017.05 1017.05 1017.05 1017.05 1017.09 1017.09 1017.09 1017.09 1017.09 1017.05 1017.01 1017.01 1016.89 1016.73 1016.61 1016.53 1016.45 1016.29 1016.25 1016.21 1016.17 1016.01 1015.93 1015.85 1015.73 1015.69 1015.57 1015.49 1015.41 1015.29 1015.21 1015.09 1015.01
1018.09 1018.05 1018.01 1018.01 1017.97 1017.93 1017.89 1017.89 1017.85 1017.81 1017.73 1017.73 1017.65 1017.57 1017.53 1017.45 1017.45 1017.41 1017.33 1017.29 1017.21 1017.17 1017.13 1017.17 1017.13 1017.09 1017.09 1017.09 1017.09 1017.05 1017.09 1017.13 1017.09 1017.13 1017.17 1017.13 1017.13 1017.09 1017.09 1017.09 1017.13 1017.17 1017.13 1017.09 1017.09 1017.05 1017.01 1017.01 1016.89 1016.69 1016.53 1016.45 1016.33 1016.21 1016.17 1016.17 1016.05 1015.97 1015.85 1015.73 1015.69 1015.61 1015.57 1015.45 1015.41 1015.33 1015.21 1015.09 1015.01
1018.21 1018.17 1018.17 1018.13 1018.09 1018.05 1018.05 1018.01 1017.97 1017.93 1017.85 1017.81 1017.73 1017.65 1017.57 1017.57 1017.49 1017.45 1017.41 1017.37 1017.29 1017.25 1017.25 1017.25 1017.21 1017.21 1017.21 1017.21 1017.17 1017.17 1017.17 1017.17 1017.17 1017.17 1017.17 1017.17 1017.17 1017.13 1017.13 1017.13 1017.13 1017.13 1017.13 1017.09 1017.09 1017.01 1016.97 1016.89 1016.81 1016.65 1016.49 1016.41 1016.29 1016.17 1016.09 1016.05 1016.01 1015.93 1015.85 1015.73 1015.61 1015.57 1015.53 1015.45 1015.37 1015.29 1015.21 1015.09 1015.01
1018.33 1018.29 1018.29 1018.29 1018.21 1018.21 1018.17 1018.17 1018.13 1018.09 1018.01 1017.97 1017.85 1017.77 1017.73 1017.65 1017.57 1017.57 1017.49 1017.45 1017.37 1017.33 1017.33 1017.33 1017.33 1017.29 1017.29 1017.29 1017.29 1017.29 1017.25 1017.21 1017.17 1017.17 1017.17 1017.17 1017.17 1017.13 1017.09 1017.09 1017.05 1017.01 1017.01 1017.01 1016.97 1016.89 1016.85 1016.73 1016.61 1016.45 1016.37 1016.29 1016.13 1016.01 1016.01 1016.01 1015.93 1015.85 1015.77 1015.69 1015.57 1015.53 1015.45 1015.37 1015.33 1015.25 1015.13 1015.01 1014.93
1018.45 1018.45 1018.41 1018.41 1018.41 1018.37 1018.37 1018.33 1018.29 1018.21 1018.17 1018.09 1018.01 1017.93 1017.85 1017.81 1017.77 1017.73 1017.61 1017.57 1017.53 1017.49 1017.49 1017.45 1017.45 1017.45 1017.41 1017.37 1017.33 1017.29 1017.29 1017.29 1017.25 1017.17 1017.17 1017.13 1017.13 1017.09 1017.01 1017.01 1016.93 1016.89 1016.85 1016.81 1016.77 1016.69 1016.57 1016.49 1016.33 1016.25 1016.17 1016.05 1015.97 1015.89 1015.85 1015.81 1015.73 1015.65 1015.57 1015.49 1015.45 1015.41 1015.37 1015.29 1015.29 1015.21 1015.09 1014.97 1014.89
1018.61 1018.57 1018.57 1018.57 1018.57 1018.57 1018.53 1018.45 1018.45 1018.37 1018.29 1018.17 1018.17 1018.09 1018.01 1017.97 1017.93 1017.85 1017.81 1017.73 1017.73 1017.65 1017.61 1017.57 1017.57 1017.53 1017.49 1017.45 1017.41 1017.37 1017.33 1017.29 1017.25 1017.17 1017.17 1017.09 1017.05 1017.01 1016.97 1016.89 1016.81 1016.73 1016.69 1016.61 1016.57 1016.45 1016.37 1016.25 1016.09 1015.97 1015.85 1015.81 1015.73 1015.65 1015.57 1015.53 1015.49 1015.45 1015.33 1015.29 1015.21 1015.17 1015.09 1015.09 1015.09 1015.09 1015.01 1014.89 1014.81
1018.77 1018.73 1018.73 1018.77 1018.73 1018.73 1018.69 1018.57 1018.57 1018.49 1018.41 1018.29 1018.25 1018.17 1018.17 1018.09 1018.01 1017.97 1017.93 1017.93 1017.85 1017.81 1017.73 1017.73 1017.69 1017.61 1017.57 1017.53 1017.45 1017.45 1017.37 1017.33 1017.25 1017.21 1017.13 1017.01 1016.97 1016.89 1016.81 1016.73 1016.65 1016.57 1016.49 1016.41 1016.33 1016.29 1016.17 1016.01 1015.89 1015.81 1015.69 1015.57 1015.57 1015.45 1015.41 1015.37 1015.29 1015.21 1015.17 1015.09 1015.05 1015.01 1014.93 1014.89 1014.89 1014.89 1014.89 1014.77 1014.69
1018.93 1018.93 1018.89 1018.89 1018.89 1018.85 1018.81 1018.73 1018.65 1018.57 1018.53 1018.45 1018.37 1018.29 1018.29 1018.21 1018.13 1018.09 1018.09 1018.01 1017.97 1017.89 1017.85 1017.81 1017.77 1017.73 1017.65 1017.57 1017.53 1017.45 1017.41 1017.33 1017.29 1017.17 1017.05 1016.97 1016.85 1016.73 1016.65 1016.57 1016.45 1016.37 1016.29 1016.21 1016.17 1016.09 1015.97 1015.85 1015.73 1015.65 1015.57 1015.45 1015.45 1015.41 1015.37 1015.29 1015.25 1015.17 1015.09 1015.01 1014.97 1014.93 1014.89 1014.81 1014.81 1014.77 1014.73 1014.65 1014.57
1019.13 1019.09 1019.05 1019.05 1019.01 1018.97 1018.93 1018.89 1018.77 1018.73 1018.61 1018.53 1018.45 1018.41 1018.37 1018.33 1018.29 1018.25 1018.21 1018.13 1018.05 1017.97 1017.85 1017.81 1017.81 1017.73 1017.69 1017.61 1017.53 1017.45 1017.37 1017.29 1017.21 1017.09 1016.97 1016.85 1016.73 1016.57 1016.49 1016.37 1016.25 1016.17 1016.13 1016.01 1015.97 1015.89 1015.85 1015.73 1015.61 1015.53 1015.45 1015.37 1015.33 1015.29 1015.29 1015.25 1015.17 1015.13 1015.01 1014.97 1014.89 1014.85 1014.77 1014.73 1014.73 1014.69 1014.61 1014.49 1014.37
1019.29 1019.25 1019.25 1019.17 1019.17 1019.09 1019.01 1018.93 1018.85 1018.77 1018.69 1018.57 1018.57 1018.53 1018.45 1018.41 1018.37 1018.29 1018.25 1018.17 1018.05 1018.01 1017.89 1017.85 1017.73 1017.73 1017.65 1017.57 1017.49 1017.41 1017.29 1017.21 1017.09 1016.93 1016.77 1016.65 1016.53 1016.45 1016.29 1016.17 1016.09 1016.01 1015.97 1015.85 1015.81 1015.77 1015.73 1015.61 1015.53 1015.45 1015.37 1015.29 1015.17 1015.13 1015.09 1015.05 1015.01 1014.89 1014.81 1014.73 1014.65 1014.57 1014.53 1014.45 1014.45 1014.41 1014.33 1014.17 1014.13
1019.41 1019.37 1019.33 1019.25 1019.17 1019.13 1019.05 1018.97 1018.89 1018.85 1018.73 1018.65 1018.61 1018.57 1018.53 1018.45 1018.37 1018.33 1018.25 1018.13 1018.05 1017.97 1017.85 1017.81 1017.73 1017.61 1017.57 1017.53 1017.45 1017.29 1017.17 1017.05 1016.89 1016.73 1016.57 1016.45 1016.33 1016.21 1016.13 1016.05 1015.97 1015.89 1015.85 1015.77 1015.73 1015.61 1015.57 1015.53 1015.45 1015.33 1015.25 1015.13 1015.01 1014.93 1014.89 1014.81 1014.73 1014.65 1014.57 1014.45 1014.33 1014.29 1014.17 1014.17 1014.13 1014.05 1014.01 1013.89 1013.85
1019.49 1019.45 1019.37 1019.29 1019.17 1019.13 1019.05 1019.01 1018.97 1018.89 1018.77 1018.73 1018.65 1018.57 1018.57 1018.45 1018.37 1018.29 1018.25 1018.13 1018.05 1017.93 1017.81 1017.73 1017.61 1017.53 1017.45 1017.29 1017.25 1017.13 1017.01 1016.81 1016.69 1016.53 1016.41 1016.25 1016.17 1016.05 1016.01 1015.93 1015.85 1015.77 1015.73 1015.65 1015.57 1015.49 1015.45 1015.37 1015.29 1015.17 1015.09 1014.97 1014.85 1014.73 1014.69 1014.61 1014.53 1014.45 1014.33 1014.25 1014.17 1014.09 1014.01 1013.93 1013.89 1013.85 1013.77 1013.65 1013.57
1019.57 1019.45 1019.37 1019.29 1019.21 1019.17 1019.09 1019.05 1019.01 1018.89 1018.85 1018.73 1018.65 1018.57 1018.57 1018.45 1018.37 1018.29 1018.21 1018.13 1018.01 1017.89 1017.73 1017.57 1017.49 1017.41 1017.29 1017.13 1017.01 1016.93 1016.77 1016.57 1016.45 1016.29 1016.17 1016.09 1016.01 1015.93 1015.85 1015.77 1015.73 1015.65 1015.57 1015.45 1015.41 1015.29 1015.21 1015.17 1015.05 1014.97 1014.85 1014.73 1014.61 1014.53 1014.45 1014.37 1014.25 1014.17 1014.05 1014.01 1013.89 1013.85 1013.77 1013.73 1013.61 1013.57 1013.49 1013.33 1013.25
1019.53 1019.45 1019.33 1019.29 1019.25 1019.17 1019.13 1019.05 1019.01 1018.89 1018.85 1018.77 1018.69 1018.61 1018.57 1018.45 1018.41 1018.29 1018.17 1018.05 1017.97 1017.81 1017.61 1017.45 1017.29 1017.21 1017.09 1016.97 1016.81 1016.65 1016.53 1016.37 1016.21 1016.09 1016.01 1015.93 1015.85 1015.77 1015.69 1015.57 1015.53 1015.45 1015.33 1015.29 1015.17 1015.05 1014.93 1014.81 1014.73 1014.65 1014.53 1014.41 1014.29 1014.17 1014.09 1014.01 1013.89 1013.77 1013.69 1013.61 1013.49 1013.45 1013.37 1013.29 1013.25 1013.17 1013.09 1012.97 1012.89
1019.53 1019.45 1019.41 1019.33 1019.29 1019.25 1019.17 1019.09 1019.01 1018.93 1018.85 1018.77 1018.73 1018.61 1018.53 1018.45 1018.37 1018.21 1018.05 1017.89 1017.81 1017.69 1017.49 1017.29 1017.13 1017.01 1016.85 1016.73 1016.57 1016.41 1016.29 1016.17 1016.05 1015.89 1015.81 1015.73 1015.69 1015.57 1015.45 1015.37 1015.29 1015.17 1015.05 1014.97 1014.85 1014.73 1014.57 1014.45 1014.41 1014.29 1014.17 1014.05 1013.97 1013.85 1013.73 1013.65 1013.53 1013.41 1013.29 1013.25 1013.13 1013.01 1012.93 1012.89 1012.81 1012.77 1012.69 1012.57 1012.53
1019.57 1019.53 1019.45 1019.45 1019.33 1019.29 1019.21 1019.13 1019.05 1018.97 1018.89 1018.81 1018.73 1018.57 1018.45 1018.33 1018.21 1018.09 1017.93 1017.73 1017.57 1017.45 1017.29 1017.13 1016.93 1016.77 1016.61 1016.45 1016.29 1016.17 1016.05 1015.97 1015.85 1015.73 1015.61 1015.57 1015.45 1015.37 1015.25 1015.17 1015.01 1014.89 1014.77 1014.69 1014.53 1014.41 1014.29 1014.17 1014.05 1013.97 1013.85 1013.73 1013.65 1013.53 1013.41 1013.29 1013.17 1013.01 1012.93 1012.89 1012.73 1012.65 1012.57 1012.53 1012.49 1012.45 1012.33 1012.29 1012.25
1019.61 1019.57 1019.53 1019.45 1019.41 1019.33 1019.25 1019.17 1019.09 1019.01 1018.89 1018.73 1018.65 1018.53 1018.37 1018.21 1018.05 1017.89 1017.73 1017.57 1017.41 1017.25 1017.05 1016.89 1016.73 1016.57 1016.45 1016.29 1016.13 1016.01 1015.85 1015.73 1015.69 1015.57 1015.49 1015.41 1015.29 1015.17 1015.01 1014.93 1014.73 1014.61 1014.45 1014.37 1014.25 1014.17 1014.05 1013.93 1013.81 1013.73 1013.61 1013.49 1013.37 1013.25 1013.09 1013.01 1012.81 1012.73 1012.61 1012.53 1012.45 1012.37 1012.33 1012.29 1012.21 1012.17 1012.13 1012.01 1011.97
1019.69 1019.61 1019.57 1019.49 1019.45 1019.37 1019.29 1019.17 1019.09 1018.97 1018.85 1018.69 1018.53 1018.33 1018.17 1018.01 1017.85 1017.73 1017.53 1017.37 1017.21 1017.01 1016.89 1016.73 1016.57 1016.41 1016.25 1016.13 1016.01 1015.85 1015.73 1015.57 1015.49 1015.41 1015.29 1015.21 1015.09 1014.93 1014.85 1014.73 1014.57 1014.45 1014.29 1014.17 1014.13 1014.01 1013.93 1013.77 1013.69 1013.57 1013.45 1013.29 1013.17 1013.01 1012.89 1012.77 1012.65 1012.53 1012.41 1012.29 1012.25 1012.17 1012.13 1012.01 1011.97 1011.89 1011.81 1011.69 1011.61
1019.69 1019.61 1019.57 1019.49 1019.45 1019.37 1019.29 1019.21 1019.05 1018.93 1018.73 1018.57 1018.37 1018.21 1018.01 1017.85 1017.69 1017.53 1017.33 1017.17 1017.01 1016.89 1016.73 1016.57 1016.41 1016.25 1016.13 1016.01 1015.85 1015.73 1015.61 1015.45 1015.33 1015.21 1015.09 1015.01 1014.89 1014.77 1014.65 1014.57 1014.45 1014.33 1014.21 1014.13 1014.01 1013.93 1013.85 1013.73 1013.57 1013.41 1013.29 1013.17 1013.01 1012.89 1012.73 1012.61 1012.49 1012.37 1012.25 1012.13 1012.01 1011.89 1011.81 1011.73 1011.65 1011.57 1011.45 1011.41 1011.33
1019.69 1019.61 1019.57 1019.49 1019.45 1019.37 1019.29 1019.17 1019.01 1018.85 1018.65 1018.45 1018.29 1018.13 1017.97 1017.73 1017.57 1017.37 1017.17 1017.01 1016.89 1016.73 1016.57 1016.45 1016.29 1016.17 1016.01 1015.85 1015.73 1015.57 1015.45 1015.33 1015.17 1015.05 1014.97 1014.89 1014.77 1014.69 1014.57 1014.45 1014.33 1014.25 1014.13 1014.01 1013.85 1013.73 1013.65 1013.57 1013.41 1013.25 1013.09 1012.97 1012.81 1012.69 1012.53 1012.37 1012.25 1012.13 1012.01 1011.89 1011.77 1011.65 1011.53 1011.45 1011.41 1011.37 1011.29 1011.29 1011.21
1019.73 1019.65 1019.57 1019.49 1019.45 1019.33 1019.17 1019.05 1018.89 1018.73 1018.57 1018.41 1018.21 1018.05 1017.85 1017.69 1017.49 1017.29 1017.09 1016.89 1016.73 1016.57 1016.45 1016.29 1016.17 1016.01 1015.85 1015.69 1015.57 1015.45 1015.29 1015.21 1015.09 1015.01 1014.89 1014.81 1014.69 1014.57 1014.49 1014.37 1014.21 1014.05 1013.93 1013.77 1013.65 1013.53 1013.41 1013.29 1013.17 1013.05 1012.93 1012.77 1012.61 1012.45 1012.29 1012.17 1012.05 1011.97 1011.85 1011.73 1011.65 1011.53 1011.41 1011.29 1011.25 1011.17 1011.17 1011.17 1011.13
1019.69 1019.61 1019.57 1019.45 1019.41 1019.29 1019.13 1018.97 1018.81 1018.65 1018.49 1018.33 1018.17 1017.97 1017.77 1017.61 1017.45 1017.25 1017.01 1016.81 1016.61 1016.45 1016.29 1016.17 1016.01 1015.85 1015.69 1015.53 1015.41 1015.29 1015.17 1015.09 1015.01 1014.89 1014.81 1014.69 1014.57 1014.45 1014.33 1014.17 1014.01 1013.89 1013.73 1013.61 1013.45 1013.33 1013.25 1013.13 1013.01 1012.89 1012.81 1012.69 1012.49 1012.33 1012.21 1012.09 1011.97 1011.85 1011.77 1011.69 1011.57 1011.45 1011.29 1011.21 1011.13 1011.01 1011.01 1010.93 1010.89
1019.73 1019.65 1019.57 1019.45 1019.37 1019.21 1019.05 1018.89 1018.73 1018.57 1018.45 1018.25 1018.05 1017.85 1017.73 1017.53 1017.37 1017.17 1016.97 1016.73 1016.57 1016.41 1016.25 1016.05 1015.85 1015.73 1015.57 1015.41 1015.25 1015.13 1015.05 1015.01 1014.89 1014.77 1014.65 1014.57 1014.45 1014.29 1014.17 1014.01 1013.85 1013.73 1013.57 1013.49 1013.33 1013.21 1013.13 1013.01 1012.89 1012.77 1012.69 1012.61 1012.45 1012.29 1012.17 1012.01 1011.89 1011.77 1011.69 1011.57 1011.45 1011.33 1011.21 1011.09 1010.97 1010.85 1010.73 1010.61 1010.57
1019.77 1019.69 1019.57 1019.45 1019.29 1019.13 1018.97 1018.81 1018.65 1018.49 1018.33 1018.17 1017.97 1017.81 1017.69 1017.49 1017.33 1017.13 1016.89 1016.73 1016.53 1016.29 1016.13 1015.93 1015.73 1015.61 1015.49 1015.29 1015.21 1015.09 1014.97 1014.85 1014.77 1014.65 1014.49 1014.37 1014.29 1014.13 1014.01 1013.85 1013.73 1013.61 1013.49 1013.41 1013.29 1013.17 1013.05 1012.93 1012.85 1012.73 1012.57 1012.45 1012.41 1012.29 1012.13 1011.97 1011.85 1011.73 1011.57 1011.45 1011.33 1011.17 1011.05 1010.89 1010.77 1010.65 1010.49 1010.37 1010.25
1019.89 1019.77 1019.57 1019.41 1019.25 1019.09 1018.93 1018.73 1018.57 1018.45 1018.25 1018.05 1017.93 1017.77 1017.61 1017.45 1017.25 1017.05 1016.89 1016.65 1016.45 1016.29 1016.09 1015.89 1015.73 1015.57 1015.41 1015.25 1015.17 1015.01 1014.89 1014.73 1014.57 1014.49 1014.37 1014.25 1014.17 1014.01 1013.89 1013.81 1013.73 1013.57 1013.49 1013.41 1013.29 1013.17 1013.01 1012.89 1012.77 1012.65 1012.57 1012.41 1012.33 1012.25 1012.09 1011.89 1011.77 1011.61 1011.45 1011.29 1011.17 1011.01 1010.89 1010.73 1010.57 1010.41 1010.25 1010.09 1009.97
1019.97 1019.81 1019.57 1019.37 1019.17 1019.01 1018.89 1018.69 1018.49 1018.33 1018.17 1018.01 1017.85 1017.73 1017.57 1017.37 1017.17 1017.01 1016.77 1016.57 1016.41 1016.21 1016.01 1015.85 1015.69 1015.49 1015.33 1015.17 1015.05 1014.89 1014.73 1014.61 1014.49 1014.45 1014.33 1014.21 1014.13 1014.01 1013.85 1013.77 1013.73 1013.61 1013.49 1013.41 1013.29 1013.13 1013.01 1012.85 1012.73 1012.57 1012.45 1012.33 1012.29 1012.17 1011.97 1011.81 1011.69 1011.49 1011.29 1011.13 1010.97 1010.81 1010.69 1010.53 1010.37 1010.17 1010.01 1009.89 1009.73
1019.97 1019.77 1019.57 1019.37 1019.17 1019.01 1018.81 1018.65 1018.45 1018.29 1018.13 1017.97 1017.81 1017.65 1017.53 1017.33 1017.13 1016.89 1016.69 1016.53 1016.33 1016.17 1015.97 1015.77 1015.61 1015.45 1015.25 1015.09 1015.01 1014.85 1014.69 1014.57 1014.49 1014.45 1014.37 1014.29 1014.13 1014.01 1013.89 1013.81 1013.73 1013.61 1013.49 1013.37 1013.25 1013.09 1012.89 1012.73 1012.57 1012.45 1012.37 1012.25 1012.17 1012.01 1011.85 1011.69 1011.49 1011.29 1011.13 1010.93 1010.73 1010.57 1010.45 1010.29 1010.17 1009.93 1009.77 1009.69 1009.53
1019.93 1019.73 1019.53 1019.33 1019.17 1018.97 1018.77 1018.57 1018.45 1018.29 1018.13 1017.93 1017.77 1017.61 1017.45 1017.25 1017.01 1016.81 1016.65 1016.45 1016.29 1016.09 1015.93 1015.73 1015.57 1015.37 1015.21 1015.05 1014.97 1014.81 1014.73 1014.65 1014.57 1014.49 1014.41 1014.29 1014.17 1014.05 1013.89 1013.77 1013.73 1013.57 1013.45 1013.29 1013.17 1012.97 1012.81 1012.65 1012.49 1012.33 1012.21 1012.09 1011.97 1011.81 1011.65 1011.45 1011.29 1011.09 1010.89 1010.65 1010.45 1010.29 1010.17 1010.01 1009.85 1009.73 1009.57 1009.45 1009.33
1019.89 1019.73 1019.53 1019.33 1019.17 1019.01 1018.77 1018.57 1018.45 1018.29 1018.13 1017.93 1017.77 1017.57 1017.37 1017.17 1016.93 1016.77 1016.57 1016.45 1016.25 1016.09 1015.89 1015.73 1015.57 1015.41 1015.25 1015.05 1014.97 1014.89 1014.77 1014.73 1014.61 1014.57 1014.45 1014.33 1014.21 1014.09 1013.93 1013.77 1013.65 1013.53 1013.37 1013.21 1013.01 1012.89 1012.73 1012.57 1012.41 1012.25 1012.09 1011.89 1011.73 1011.57 1011.33 1011.17 1010.93 1010.73 1010.53 1010.33 1010.17 1010.01 1009.85 1009.73 1009.57 1009.45 1009.33 1009.21 1009.13
1019.89 1019.69 1019.53 1019.37 1019.17 1019.01 1018.85 1018.65 1018.49 1018.33 1018.13 1017.89 1017.69 1017.49 1017.29 1017.13 1016.97 1016.77 1016.57 1016.41 1016.21 1016.05 1015.85 1015.69 1015.57 1015.41 1015.25 1015.13 1015.01 1014.97 1014.89 1014.77 1014.69 1014.57 1014.53 1014.41 1014.25 1014.05 1013.85 1013.69 1013.53 1013.41 1013.29 1013.13 1012.97 1012.81 1012.65 1012.45 1012.29 1012.05 1011.85 1011.61 1011.45 1011.25 1011.01 1010.81 1010.57 1010.41 1010.21 1010.01 1009.85 1009.73 1009.57 1009.45 1009.33 1009.21 1009.09 1008.97 1008.89
1019.93 1019.73 1019.57 1019.41 1019.25 1019.09 1018.89 1018.73 1018.57 1018.29 1018.09 1017.89 1017.69 1017.45 1017.29 1017.17 1016.97 1016.81 1016.57 1016.41 1016.17 1016.01 1015.85 1015.73 1015.57 1015.45 1015.33 1015.21 1015.17 1015.05 1014.97 1014.89 1014.73 1014.61 1014.53 1014.37 1014.17 1014.01 1013.81 1013.61 1013.53 1013.37 1013.25 1013.09 1012.93 1012.73 1012.49 1012.29 1012.05 1011.81 1011.57 1011.37 1011.21 1011.01 1010.77 1010.57 1010.37 1010.17 1009.93 1009.77 1009.61 1009.45 1009.33 1009.25 1009.13 1008.97 1008.85 1008.73 1008.57
1020.01 1019.85 1019.69 1019.53 1019.33 1019.17 1018.97 1018.77 1018.57 1018.33 1018.09 1017.93 1017.73 1017.53 1017.37 1017.17 1017.01 1016.77 1016.57 1016.41 1016.17 1016.01 1015.89 1015.77 1015.65 1015.57 1015.45 1015.37 1015.29 1015.17 1015.05 1014.93 1014.73 1014.57 1014.45 1014.29 1014.17 1014.01 1013.85 1013.65 1013.49 1013.37 1013.25 1013.05 1012.85 1012.57 1012.33 1012.09 1011.81 1011.57 1011.41 1011.21 1011.01 1010.81 1010.61 1010.41 1010.17 1009.93 1009.73 1009.57 1009.41 1009.29 1009.17 1009.09 1008.89 1008.73 1008.61 1008.45 1008.29
1020.05 1019.93 1019.81 1019.65 1019.45 1019.25 1019.01 1018.81 1018.57 1018.37 1018.17 1017.97 1017.81 1017.61 1017.45 1017.21 1017.01 1016.77 1016.57 1016.45 1016.29 1016.09 1015.93 1015.85 1015.77 1015.69 1015.57 1015.49 1015.33 1015.21 1015.05 1014.89 1014.73 1014.57 1014.45 1014.29 1014.21 1014.09 1013.89 1013.65 1013.45 1013.33 1013.21 1012.97 1012.73 1012.41 1012.17 1011.89 1011.65 1011.45 1011.29 1011.13 1010.89 1010.69 1010.45 1010.21 1010.01 1009.81 1009.61 1009.45 1009.29 1009.13 1009.01 1008.89 1008.73 1008.49 1008.29 1008.13 1007.97
1020.17 1020.01 1019.89 1019.73 1019.53 1019.29 1019.05 1018.85 1018.65 1018.45 1018.29 1018.09 1017.89 1017.73 1017.45 1017.25 1017.01 1016.81 1016.65 1016.53 1016.37 1016.21 1016.09 1016.01 1015.89 1015.81 1015.69 1015.57 1015.37 1015.21 1015.05 1014.89 1014.77 1014.61 1014.45 1014.33 1014.25 1014.13 1013.89 1013.65 1013.45 1013.29 1013.09 1012.85 1012.57 1012.29 1012.01 1011.77 1011.57 1011.37 1011.17 1011.01 1010.77 1010.57 1010.33 1010.09 1009.89 1009.73 1009.53 1009.37 1009.17 1008.97 1008.81 1008.61 1008.45 1008.21 1008.01 1007.77 1007.57
1020.25 1020.13 1020.01 1019.81 1019.57 1019.33 1019.17 1018.97 1018.81 1018.61 1018.45 1018.21 1018.01 1017.73 1017.49 1017.25 1017.05 1016.89 1016.73 1016.61 1016.49 1016.37 1016.25 1016.17 1016.01 1015.89 1015.73 1015.57 1015.41 1015.21 1015.01 1014.89 1014.73 1014.61 1014.49 1014.37 1014.25 1014.05 1013.85 1013.65 1013.45 1013.21 1012.97 1012.73 1012.45 1012.17 1011.93 1011.73 1011.49 1011.29 1011.05 1010.89 1010.65 1010.45 1010.25 1010.05 1009.85 1009.61 1009.41 1009.21 1009.01 1008.73 1008.53 1008.29 1008.17 1007.93 1007.73 1007.49 1007.29
1020.29 1020.17 1020.01 1019.85 1019.61 1019.45 1019.25 1019.09 1018.93 1018.73 1018.53 1018.29 1018.05 1017.77 1017.53 1017.29 1017.13 1017.01 1016.85 1016.73 1016.61 1016.53 1016.45 1016.29 1016.17 1015.97 1015.81 1015.65 1015.45 1015.25 1015.05 1014.89 1014.73 1014.61 1014.49 1014.33 1014.17 1014.01 1013.81 1013.57 1013.37 1013.13 1012.89 1012.65 1012.41 1012.17 1011.89 1011.69 1011.41 1011.13 1010.89 1010.73 1010.53 1010.37 1010.21 1010.01 1009.73 1009.49 1009.25 1009.01 1008.81 1008.57 1008.29 1008.05 1007.85 1007.69 1007.45 1007.29 1007.09
Wind_Speed
4 4 4 4 4 4 4 4 4 3 3 3 4 4 4 4 4 4 4 4 4 4 4 4 4 5 5 7 7 7 7 7 8 8 8 8 8 8 8 8 8 8 8 8 8 8 7 7 7 6 5 5 5 5 5 4 4 5 6 6 6 6 7 8 8 9 9 10 9
5 5 4 4 4 4 4 4 4 4 4 4 4 4 5 5 5 5 5 5 5 5 5 5 4 5 6 8 7 7 7 7 8 8 8 8 8 8 8 8 8 8 8 8 8 8 7 8 7 6 6 5 6 6 5 5 5 6 8 8 7 6 6 7 8 8 9 9 8
5 5 5 5 5 5 4 4 5 5 6 6 5 5 5 5 5 5 5 5 5 5 5 5 5 5 6 7 7 7 7 7 8 8 8 8 8 8 8 8 9 9 9 8 8 7 7 8 7 7 6 6 7 7 7 7 7 7 8 9 7 6 6 6 7 7 7 7 8
5 5 5 6 6 7 6 5 6 6 6 6 6 6 5 5 5 5 5 6 6 6 5 5 5 6 6 6 7 8 8 8 9 9 9 9 9 9 9 9 10 10 9 9 9 9 9 9 8 7 7 8 8 8 7 7 7 8 7 7 7 7 7 7 6 6 6 7 7
6 6 6 6 7 7 6 6 6 7 6 5 5 5 5 5 5 5 5 5 5 6 6 7 7 7 7 7 9 9 10 10 9 9 9 9 10 10 10 10 10 10 9 9 9 9 9 10 8 7 7 8 8 7 8 8 9 8 8 7 7 7 7 7 7 7 7 7 7
7 7 7 6 7 7 6 6 7 7 6 6 6 6 6 5 6 6 6 6 7 8 9 8 8 8 8 9 10 10 9 9 9 9 9 9 9 10 11 11 11 10 9 10 10 10 10 9 8 7 7 7 8 8 9 9 9 8 8 7 7 7 7 8 7 7 7 8 8
8 8 8 7 8 7 7 7 7 7 7 6 7 8 8 8 8 8 9 8 8 8 8 7 7 8 8 9 9 9 9 9 9 10 10 10 10 10 10 11 11 11 11 11 11 11 10 9 8 8 7 7 7 8 8 8 8 8 8 8 7 7 7 8 7 7 8 10 11
8 8 8 8 8 8 8 9 8 8 8 7 8 9 10 10 10 10 10 9 8 8 7 6 8 9 10 10 10 10 10 10 10 10 10 10 11 11 11 11 11 11 11 10 10 10 10 9 8 8 8 7 7 7 8 8 9 9 9 9 8 7 6 6 6 6 8 10 11
7 8 8 8 8 8 9 9 9 9 9 9 9 10 11 11 11 11 10 9 8 8 7 7 8 10 11 11 11 10 10 10 10 10 10 10 11 11 11 10 10 10 10 10 10 11 11 9 8 8 8 7 7 7 7 8 9 10 10 10 9 8 8 7 8 8 9 10 11
8 8 8 8 9 9 9 10 10 10 10 10 11 11 11 11 10 10 9 8 8 8 8 8 9 10 11 11 11 11 10 10 10 10 11 11 11 11 10 10 10 10 10 10 10 10 11 9 9 8 8 8 9 9 9 10 11 11 11 9 9 10 10 10 10 11 11 10 11
9 9 9 8 9 9 10 10 9 9 9 9 10 10 10 10 10 10 9 9 9 10 10 10 10 10 10 10 10 11 10 10 10 11 11 11 11 11 11 10 11 11 11 10 10 9 9 8 9 10 10 10 10 10 10 11 11 12 12 10 10 11 11 12 11 11 11 11 12
9 9 9 9 10 10 10 9 9 8 9 9 10 10 10 9 10 10 10 10 11 11 11 10 10 10 10 9 10 10 10 10 11 11 12 12 12 12 11 11 11 11 11 11 10 9 8 9 9 10 11 11 9 8 8 10 11 11 12 11 11 10 11 11 10 10 9 10 11
9 9 9 10 10 10 10 9 8 8 8 9 9 9 9 9 10 10 10 11 11 11 10 10 10 9 9 9 9 9 10 10 11 11 12 13 13 12 12 12 12 12 12 11 10 9 9 9 10 11 12 12 10 9 9 11 11 12 12 13 12 12 12 12 11 11 11 12 12
10 10 10 10 10 10 9 9 8 8 8 9 9 9 9 9 9 10 10 10 11 11 10 10 9 8 9 9 9 10 10 10 11 12 13 13 13 13 12 12 12 11 11 10 9 10 10 11 11 12 12 13 12 12 12 13 13 13 14 14 15 15 15 14 14 14 14 15 15
10 10 10 10 10 9 9 9 8 8 8 9 9 9 9 9 9 9 10 10 11 11 10 10 9 9 9 11 11 11 12 12 12 13 13 13 13 13 13 12 12 11 11 10 10 10 11 12 12 12 13 13 14 14 14 14 14 14 14 15 15 16 16 16 15 15 15 15 15
10 10 10 10 10 10 9 9 8 8 8 9 9 10 9 9 9 10 10 11 11 10 10 11 10 10 10 11 12 12 12 12 13 13 13 13 13 13 13 12 12 12 11 11 11 11 11 12 12 12 13 14 14 14 14 14 14 14 14 14 14 15 14 14 14 14 14 15 15
10 10 10 10 11 10 10 10 9 9 9 10 11 11 10 10 10 10 11 11 11 11 12 13 12 11 11 11 11 12 12 12 12 12 12 12 12 12 12 12 13 13 13 13 13 13 13 12 12 13 13 14 14 14 14 14 14 14 14 14 14 14 14 14 14 14 15 15 15
11 11 11 11 11 11 11 11 11 11 11 12 12 11 11 11 11 11 12 12 12 13 14 15 14 13 12 13 12 12 11 12 12 12 11 11 12 12 12 13 13 13 13 13 13 13 13 14 14 14 14 14 14 14 14 15 15 15 16 16 16 16 16 16 16 16 15 16 16
11 11 11 11 12 12 12 12 12 12 12 12 12 12 12 13 13 13 13 13 14 15 15 16 14 14 13 14 14 13 12 12 12 13 12 12 12 12 13 13 13 13 14 14 14 14 14 15 15 15 14 14 14 14 14 15 15 15 16 16 16 16 17 17 17 16 16 16 15
11 11 12 12 12 12 12 12 12 13 12 12 13 13 14 14 14 14 14 14 14 15 16 16 15 14 14 14 14 14 13 11 12 13 13 13 13 13 13 14 14 14 14 14 14 15 15 15 15 15 15 15 15 15 15 15 15 15 15 15 15 15 15 15 15 15 15 15 15
11 12 12 12 12 12 12 12 12 13 13 13 14 14 14 14 14 14 15 15 15 15 15 15 15 15 14 14 14 14 13 11 12 12 13 13 13 13 14 14 14 14 13 13 14 14 14 14 15 15 15 15 15 15 15 15 15 15 15 13 13 13 14 14 14 14 14 14 14
11 12 12 12 12 12 12 13 13 13 13 14 14 14 14 14 14 14 15 15 15 15 15 15 15 15 14 14 14 13 13 12 12 12 12 12 13 13 13 13 13 14 13 13 13 13 13 14 14 14 14 14 14 15 15 14 14 14 14 14 14 14 14 14 14 14 14 14 14
12 11 11 11 12 12 13 13 13 13 14 14 14 14 14 14 14 15 15 15 14 14 14 14 14 14 13 13 13 13 13 12 13 13 13 13 13 13 13 12 12 13 12 12 12 12 12 12 13 13 13 13 13 14 14 14 13 13 13 14 14 14 14 14 14 14 14 14 14
12 12 11 10 11 12 13 13 13 14 14 14 15 15 14 14 15 15 15 15 14 14 14 12 12 12 13 13 13 13 13 13 14 14 13 13 13 13 12 12 11 11 11 10 11 12 13 12 11 12 12 12 12 13 13 13 13 14 14 15 15 14 14 13 13 13 13 13 12
12 12 12 11 12 13 13 13 14 14 14 14 15 15 15 15 15 15 14 14 14 14 14 13 13 13 12 12 12 13 13 13 13 13 13 12 12 12 12 11 11 10 10 10 14 17 18 16 14 12 11 11 12 12 13 13 14 14 14 14 14 13 13 13 13 13 13 13 13
12 12 12 13 13 13 14 14 14 14 14 15 15 15 15 15 14 14 15 15 14 14 14 13 13 12 12 11 12 12 12 11 11 11 12 12 12 13 13 11 10 9 9 11 16 18 20 21 20 18 15 12 11 11 11 11 12 12 13 13 13 13 13 13 14 14 14 14 14
12 13 13 13 13 14 14 14 14 14 14 15 15 15 15 15 14 14 15 15 15 14 14 13 12 12 11 11 11 12 11 10 10 11 12 12 13 13 13 12 10 9 9 13 17 19 20 21 21 21 18 14 12 11 10 10 11 12 12 13 13 13 14 15 15 15 15 15 15
13 13 14 14 14 14 14 14 14 14 14 14 15 15 14 15 15 15 15 15 15 14 13 11 11 10 9 9 10 11 11 11 11 11 11 12 13 14 13 12 10 10 12 15 18 19 20 20 21 21 20 16 13 11 11 11 11 11 11 12 13 14 15 15 15 15 16 16 16
14 14 14 14 14 14 14 14 14 14 14 14 14 14 14 15 15 15 15 15 15 14 12 10 9 8 8 9 10 11 12 12 11 11 11 12 13 13 13 12 12 12 14 18 19 20 21 21 22 22 22 21 15 11 10 10 10 11 11 11 12 13 14 15 15 15 15 16 16
15 15 14 14 14 14 14 14 14 14 14 13 13 13 14 14 15 15 15 15 15 13 12 10 10 10 11 11 11 11 12 12 11 11 11 12 12 12 12 12 12 13 15 18 20 21 22 23 23 23 23 23 18 14 11 10 11 11 12 12 13 15 16 16 17 17 17 16 16
15 14 14 14 14 14 14 14 14 14 13 12 13 13 13 14 14 15 15 14 14 13 13 13 13 13 13 13 12 12 12 12 12 11 11 12 12 13 13 13 14 14 16 19 21 22 23 23 23 23 23 23 19 14 12 11 12 12 12 13 14 16 16 16 16 17 17 17 17
14 14 14 14 14 14 14 14 14 14 14 14 13 14 14 14 14 14 14 13 13 13 14 14 14 14 14 13 13 13 13 12 12 11 11 12 13 13 14 14 14 15 16 20 21 22 22 23 23 23 23 23 19 15 13 13 13 13 14 15 16 17 17 15 15 16 17 18 17
14 14 14 14 14 14 14 14 14 14 14 14 14 14 14 14 14 13 13 12 12 13 13 14 13 13 13 13 12 12 12 12 12 12 13 14 14 15 15 15 13 14 16 20 21 22 22 22 22 23 23 23 19 16 14 14 13 12 13 14 15 16 17 17 16 16 17 17 16
14 14 14 14 14 14 14 14 14 14 14 14 14 14 14 14 13 13 12 12 12 12 12 12 12 12 12 12 12 12 12 11 12 13 14 15 15 16 16 14 11 12 16 19 21 21 22 22 23 23 23 23 18 15 13 14 13 13 13 14 15 15 16 16 16 16 16 16 16
14 14 14 14 14 14 15 15 15 15 14 14 14 14 14 13 13 13 13 13 12 12 12 11 11 11 11 12 12 12 13 12 12 12 13 13 14 15 15 14 12 14 17 20 21 22 22 23 23 23 23 20 15 12 12 13 13 13 14 15 15 15 15 15 15 15 15 16 16
13 14 14 15 15 15 15 15 15 15 14 14 14 14 14 14 13 13 13 13 12 12 11 11 11 11 12 12 12 12 13 13 12 12 11 12 13 14 15 14 14 15 18 20 21 22 22 23 23 23 21 17 12 10 10 11 11 12 13 14 14 14 14 14 14 14 14 14 15
13 14 14 15 15 15 15 15 15 14 14 14 14 14 14 14 13 13 12 12 11 11 11 11 11 12 13 13 12 12 13 13 12 12 11 11 12 13 14 14 14 15 17 19 21 22 22 22 22 22 19 14 11 10 10 10 9 10 11 12 13 13 13 13 13 13 14 15 15
12 13 14 15 15 15 15 15 14 14 14 14 14 14 14 13 13 12 11 11 10 11 11 11 12 12 13 13 13 12 12 13 13 12 12 11 12 13 14 15 15 15 16 18 20 21 22 22 22 21 18 13 11 10 9 9 9 9 10 11 11 12 13 12 12 12 14 15 17
12 13 14 15 15 15 15 14 14 14 14 14 14 14 13 13 12 11 10 10 10 11 11 12 13 13 13 14 13 13 13 13 13 12 12 11 12 13 15 15 15 14 15 18 20 21 21 21 21 21 19 15 12 9 8 8 9 10 10 10 11 12 12 12 11 11 12 15 19
11 12 13 14 14 14 14 14 14 14 14 14 14 13 13 12 11 11 10 10 10 11 11 12 13 13 14 14 13 13 13 13 13 12 11 11 12 15 16 15 14 14 15 17 19 20 21 21 21 22 20 14 11 9 8 8 9 10 11 10 10 10 11 11 10 10 10 12 15
10 11 12 13 13 13 13 14 14 14 14 13 14 13 12 11 11 11 10 10 11 11 11 11 13 14 14 14 13 12 13 13 13 12 12 12 12 14 15 14 14 14 14 15 18 20 21 21 22 22 20 15 11 9 8 8 9 11 11 11 10 10 9 10 9 9 9 10 11
Wind_Direction
340 341 343 341 338 334 330 327 326 323 319 315 315 317 319 320 318 317 316 316 315 316 318 319 320 320 321 320 318 317 315 314 313 313 313 313 312 313 315 315 315 316 316 316 317 317 316 316 313 309 305 303 301 298 295 294 296 294 292 290 289 289 290 288 287 286 286 286 285
347 347 345 340 333 326 323 322 323 323 324 324 325 326 325 323 319 317 315 315 315 316 316 314 315 314 312 312 312 312 312 311 312 312 312 311 311 313 314 314 315 316 317 319 320 320 319 319 316 312 307 304 301 299 298 298 297 293 289 286 284 282 281 279 278 279 280 281 280
350 347 344 339 335 332 331 331 331 330 330 329 329 328 325 320 315 313 311 312 312 312 310 307 306 306 307 308 310 310 311 311 312 312 311 311 312 313 314 316 317 318 319 322 323 322 320 320 315 309 304 301 301 299 299 300 300 296 292 289 286 282 278 275 274 274 273 272 272
352 349 346 341 339 337 336 334 329 327 326 325 323 320 316 313 310 308 307 307 307 305 303 303 303 305 307 311 311 310 310 311 312 312 312 312 314 316 317 318 318 318 319 320 320 319 317 316 310 304 300 298 297 295 294 296 296 294 291 290 288 286 284 281 279 277 274 272 270
353 350 346 341 338 336 333 329 325 322 320 319 316 312 309 307 305 305 304 304 303 303 304 307 308 310 311 312 311 311 311 312 314 315 316 316 317 317 317 316 316 316 316 315 314 312 310 309 303 296 293 291 289 286 286 287 287 285 283 281 280 280 280 280 279 278 277 275 274
349 345 341 337 334 332 329 325 321 319 316 314 309 307 305 303 304 304 304 304 304 305 307 309 311 311 311 312 312 312 313 314 315 317 317 316 315 313 312 311 312 311 310 307 305 303 301 300 294 288 285 283 280 280 280 282 281 279 277 274 272 272 272 272 273 274 275 274 275
344 340 336 333 332 330 327 325 322 319 316 312 309 307 306 306 306 306 306 306 306 307 309 311 312 313 313 314 313 313 314 314 313 313 312 310 309 308 308 307 306 304 302 300 298 296 294 291 287 284 282 281 280 279 279 279 278 277 276 274 272 271 270 270 271 271 272 272 273
339 336 334 333 332 330 328 327 325 322 319 315 312 311 310 310 310 310 310 309 308 309 312 313 314 314 314 314 313 312 311 311 309 308 307 305 304 303 302 301 299 297 295 293 291 289 287 285 281 279 279 278 276 276 277 277 277 277 276 276 275 274 272 271 270 269 268 268 269
337 336 335 334 333 331 331 329 326 322 318 315 313 313 313 314 314 313 312 310 311 313 315 315 315 314 313 311 310 309 309 308 306 305 303 302 300 299 297 295 293 290 288 286 283 282 280 277 274 272 272 272 272 272 273 273 273 272 271 272 273 273 273 272 271 270 269 267 267
337 336 336 334 334 333 331 328 324 320 317 315 314 314 315 315 315 314 313 312 315 316 315 314 314 313 312 310 308 307 307 305 304 302 301 299 297 295 293 290 287 285 283 280 278 276 274 272 269 266 265 264 265 265 265 263 263 263 263 263 264 265 266 267 268 270 270 269 268
337 337 336 335 334 332 330 327 323 320 318 315 315 316 315 315 313 313 314 316 314 312 311 312 313 312 311 309 307 306 304 303 302 300 299 297 294 291 289 285 283 281 280 278 276 275 273 270 269 268 267 267 266 265 263 262 262 261 260 259 258 258 259 259 260 263 266 267 268
337 336 335 334 333 331 328 325 322 319 317 316 315 315 314 313 313 314 315 315 311 309 308 310 311 310 308 306 304 303 301 300 299 297 295 293 290 288 285 283 282 281 280 279 278 276 274 272 273 274 275 275 275 274 274 275 275 274 273 273 270 267 265 263 263 263 265 267 267
337 336 335 334 332 329 327 324 321 319 317 315 315 315 314 313 314 314 314 312 309 307 306 306 306 305 303 302 301 300 299 297 295 292 289 288 286 285 283 281 281 281 280 280 279 278 277 276 278 279 281 282 282 283 285 286 286 286 285 285 282 280 278 276 274 273 271 269 268
336 335 334 332 330 328 325 322 320 318 316 314 314 314 314 313 314 313 312 308 306 304 303 302 302 301 300 299 298 297 295 293 290 287 285 283 283 282 282 281 281 282 282 282 281 281 281 282 283 284 284 285 283 283 282 282 280 280 279 279 278 277 276 274 272 270 267 265 264
335 334 331 329 327 325 322 321 318 316 315 314 314 314 314 312 312 310 308 305 304 303 302 302 300 299 298 297 295 294 291 288 286 284 282 281 281 282 283 283 284 285 286 287 286 286 286 286 286 286 285 284 282 280 278 276 273 271 269 267 266 266 265 264 263 261 259 258 258
332 330 328 326 324 322 321 320 317 315 314 313 313 313 312 310 308 307 306 305 304 303 301 300 299 298 296 294 292 289 287 284 283 281 281 281 282 283 285 287 288 289 289 290 289 288 286 286 285 284 283 282 280 279 277 275 273 271 268 265 263 263 262 262 261 260 259 258 257
328 326 324 323 322 321 320 319 317 315 313 312 312 311 310 308 307 306 305 305 303 301 299 298 297 295 293 292 289 287 284 282 280 280 280 281 284 286 288 289 290 290 289 288 286 285 283 282 280 279 278 278 277 276 276 275 273 272 271 269 268 267 267 266 265 264 262 261 259
325 324 323 323 322 321 320 319 316 314 312 311 311 310 309 308 307 305 304 303 301 299 297 296 294 293 290 289 287 284 282 280 280 280 282 284 287 289 289 289 288 287 286 284 282 281 280 278 277 275 274 272 271 270 269 268 267 266 266 265 265 264 264 263 261 260 259 258 257
324 323 324 324 323 321 319 317 315 313 312 312 311 310 308 307 305 303 301 300 298 296 295 293 291 289 287 285 284 282 280 279 281 282 284 286 288 288 287 286 285 283 282 280 278 277 276 274 273 271 270 268 267 266 264 263 263 262 261 260 259 259 258 257 256 254 253 253 253
324 325 325 324 322 319 317 316 315 313 312 311 310 308 305 303 301 299 297 296 294 293 291 289 288 286 284 282 281 280 279 280 283 284 286 287 286 285 284 283 281 280 278 277 275 274 273 272 271 270 270 269 268 267 266 264 264 263 262 261 259 258 257 256 255 254 253 252 252
326 325 324 322 320 318 317 316 315 313 312 309 307 304 301 299 297 295 293 291 291 289 288 287 285 284 283 282 281 281 282 283 285 287 287 287 284 283 281 280 278 277 276 275 274 274 274 274 274 274 274 273 272 270 268 267 265 264 263 263 262 261 261 261 260 260 259 257 256
325 324 323 321 320 319 318 317 315 312 309 307 303 301 298 295 293 291 290 289 289 288 287 286 285 285 284 284 284 285 287 288 289 288 287 285 282 281 279 278 278 278 278 278 278 279 280 281 281 281 280 279 276 274 273 271 270 269 269 269 269 269 269 268 266 265 263 262 260
324 323 322 321 321 320 318 316 314 311 308 304 302 299 297 295 293 292 291 290 290 289 289 288 287 287 287 288 289 290 290 290 288 286 284 282 281 281 281 281 282 284 285 286 288 289 289 289 288 286 285 283 282 281 280 279 279 278 278 277 275 273 271 269 266 265 263 261 260
324 324 324 323 322 320 318 315 312 309 306 304 302 301 300 298 297 296 295 294 292 292 291 291 291 291 291 291 291 291 290 288 286 284 283 283 284 286 288 288 289 289 289 289 288 288 288 287 287 286 285 283 283 283 283 283 281 280 279 277 276 274 272 270 269 268 267 267 267
325 325 324 323 322 319 317 314 311 308 306 305 305 304 303 302 301 300 299 297 296 295 294 293 293 293 293 292 291 289 287 285 285 286 288 289 291 292 292 290 288 286 284 281 281 281 281 281 281 281 281 281 280 280 280 279 278 278 278 278 278 279 279 279 278 278 278 279 279
327 326 325 324 321 319 315 312 310 308 308 308 307 306 306 305 304 302 301 300 299 298 297 295 294 293 292 290 288 286 285 286 288 291 293 294 293 291 289 286 284 281 279 278 279 279 280 280 281 282 283 283 283 282 282 281 282 283 284 284 285 285 285 285 284 283 282 281 280
329 327 326 324 321 317 314 312 311 310 310 309 308 307 307 307 306 305 304 302 302 301 299 297 295 292 290 287 286 287 288 291 293 293 293 292 290 288 286 284 283 281 281 283 284 284 285 286 288 290 291 292 293 293 293 292 292 292 291 290 288 287 286 285 284 282 280 278 276
331 328 326 323 319 316 314 313 312 311 310 308 308 308 308 309 308 307 306 305 305 303 301 297 295 293 291 289 290 293 295 295 294 291 289 286 285 285 285 286 287 287 289 291 293 294 295 297 298 300 302 303 301 300 298 296 296 294 291 289 287 285 283 282 281 279 278 275 272
331 327 324 320 317 315 315 315 313 311 309 308 308 309 310 310 310 309 307 307 306 304 302 300 298 297 296 297 298 298 297 295 292 288 286 285 286 287 289 292 293 295 298 301 302 303 304 304 304 304 304 304 302 301 298 296 293 291 288 286 284 282 281 279 278 276 275 274 272
329 325 321 317 316 316 316 315 313 311 310 309 310 311 311 310 309 308 307 306 305 305 304 304 303 302 302 302 301 300 298 296 293 292 292 292 294 296 298 301 303 305 306 308 307 306 305 304 303 303 302 302 300 298 295 292 290 288 286 284 281 279 278 276 275 273 273 272 271
325 321 318 316 316 316 316 315 313 312 312 312 313 312 311 310 307 306 305 305 306 306 306 305 304 304 304 304 303 301 300 299 300 301 302 303 304 306 308 308 309 309 308 308 306 304 303 302 301 301 301 300 299 296 292 289 287 285 283 280 278 276 275 274 273 271 270 270 270
321 319 317 317 318 318 317 316 315 316 316 317 316 314 312 308 306 305 306 307 308 308 308 307 306 305 305 305 304 304 305 307 309 311 312 313 313 313 313 311 310 308 306 305 303 302 301 301 301 300 300 299 296 293 289 286 284 281 278 276 274 273 272 271 270 269 269 270 270
319 319 319 320 320 320 320 319 320 321 321 320 318 315 312 308 308 309 310 311 310 310 309 308 307 307 308 308 309 310 313 315 317 319 319 318 316 314 312 309 306 304 303 302 301 301 301 302 301 300 298 297 293 289 285 282 279 276 274 272 272 271 271 270 270 270 271 271 271
321 322 323 324 324 324 324 325 325 324 323 320 317 314 312 312 313 314 315 314 312 311 309 309 310 311 313 315 317 320 322 323 323 322 320 318 315 311 308 305 301 301 302 302 303 303 303 302 300 298 295 293 290 285 280 277 275 273 272 272 272 271 271 270 270 270 271 271 270
325 327 329 330 329 329 328 328 326 324 321 319 317 316 317 318 319 319 317 315 313 311 311 312 316 319 322 324 326 326 325 324 321 320 317 314 311 307 305 303 302 304 305 306 306 305 303 300 297 295 292 290 286 282 279 278 276 275 274 274 274 273 272 272 271 271 270 270 269
331 333 334 334 333 332 330 328 325 323 321 320 321 322 323 324 322 320 317 315 314 315 317 321 325 328 329 329 328 326 324 321 318 316 314 312 310 309 308 308 308 309 310 309 307 304 301 297 295 294 293 292 289 286 284 283 280 279 278 277 277 277 277 277 275 274 273 271 269
336 337 338 337 335 332 329 326 325 324 325 326 327 328 327 325 322 319 317 318 319 323 327 330 332 332 331 330 327 324 322 319 317 315 315 315 316 316 315 314 313 312 311 309 305 302 299 297 297 298 300 299 296 293 290 286 284 283 283 283 283 283 283 281 279 276 273 270 268
340 341 340 338 335 331 329 327 328 329 330 331 330 329 327 323 320 320 321 325 328 331 333 335 335 333 331 329 326 323 321 320 319 319 319 321 322 321 318 315 313 311 309 306 303 301 301 302 304 307 308 305 300 296 293 291 291 290 290 289 288 286 284 280 277 274 271 268 266
344 344 342 338 334 331 330 331 334 335 334 332 330 327 324 322 321 324 328 332 335 337 338 337 336 333 331 329 326 324 323 322 322 322 322 324 323 321 318 315 312 309 307 304 304 305 307 310 311 312 310 305 302 300 299 299 298 296 294 291 288 285 281 278 274 272 269 267 267
346 345 342 338 334 333 334 337 338 337 334 330 327 324 323 323 325 329 334 338 341 342 341 338 336 334 332 330 327 325 324 323 323 323 323 324 321 319 317 314 311 308 306 306 308 311 313 315 313 311 309 306 308 308 307 305 300 296 293 289 286 283 281 277 274 272 270 269 269
347 345 342 338 337 338 339 341 339 335 331 328 326 325 325 328 332 337 341 345 348 347 344 339 336 334 333 331 329 327 325 323 323 323 323 322 319 317 316 312 309 308 308 309 313 314 315 314 311 310 311 313 315 315 311 305 299 294 291 289 286 284 282 281 278 275 273 273 272